Home   Weather   Islamabad   Past weeks

Flag for Pakistan Past Weather in Islamabad, Pakistan — Yesterday and Last 2 Weeks

Now
61 °F

Haze.


Feels Like: 61 °F
Forecast: 54 / 76 °F
Wind: No wind

Location: Islamabad Airport

Current Time: Dec 9, 2016 at 10:48:00 pm

Latest Report: Dec 9, 2016 at 7:00 pm


Visibility: 1 mi

Pressure: 29.95 "Hg (28.05 "Hg at 554m altitude)

Humidity: 63%

Dew Point: 48 °F

Location of IslamabadLocation

Past Weather in Islamabad — Graph

°F

Islamabad Temperature Yesterday

Maximum temperature yesterday: 75 °F (at 3:00 pm)
Minimum temperature yesterday: 46 °F (at 7:30 am)
Average temperature yesterday: 61 °F

High & Low Weather Summary for the Past Weeks

 TemperatureHumidityPressure
High79 °F (Nov 26, 1:00 pm)100% (Nov 26, 7:00 pm)30.21 "Hg (Nov 26, 7:00 pm)
Low46 °F (Nov 28, 7:00 am)19% (Nov 28, 4:00 pm)29.92 "Hg (Nov 28, 3:00 pm)
Average61 °F57%30.07 "Hg
* Reported Nov 24 7:00 pm — Dec 9 7:00 pm, Islamabad, Weather by CustomWeather, © 2016

Note: Actual official high and low records may vary slightly from our data, if they occured in-between our weather recording intervals... More about our weather records

Advertising

Islamabad Weather History for the Previous 24 Hours

Scroll right to see more
 ConditionsComfort  
Time TempWeatherWind HumidityBarometerVisibility
7:00 pm
Fri, Dec 9
61 °FHaze.No wind63%29.95 "Hg1 mi
6:30 pm63 °FHaze.No wind56%29.95 "Hg1 mi
6:00 pm63 °FHaze.No wind56%29.95 "Hg1 mi
5:00 pm68 °FHaze.No wind53%29.92 "Hg1 mi
4:30 pm72 °FHaze.No wind44%29.92 "Hg1 mi
3:00 pm72 °FHaze.No wind38%29.92 "Hg1 mi
2:30 pm72 °FHaze.No wind41%29.95 "Hg1 mi
2:00 pm72 °FHaze.No wind41%29.95 "Hg1 mi
1:30 pm70 °FHaze.No wind43%29.98 "Hg1 mi
1:00 pm70 °FHaze.No wind43%29.98 "Hg1 mi
12:30 pm66 °FHaze.No wind43%30.01 "Hg1 mi
12:00 pm66 °FHaze.No wind43%30.01 "Hg1 mi
11:30 am61 °FHaze.No wind52%30.04 "Hg1 mi
11:00 am61 °FHaze.No wind52%30.04 "Hg1 mi
10:30 am55 °FHaze.No wind67%30.04 "Hg1 mi
9:30 am50 °FFog.No wind76%30.04 "Hg1 mi
9:00 am50 °FFog.No wind76%30.04 "Hg1 mi
8:30 am48 °FFog.No wind82%30.04 "Hg1 mi
8:00 am48 °FFog.No wind82%30.01 "Hg1 mi
7:30 am46 °FFog.No wind87%30.01 "Hg1 mi
7:00 am46 °FFog.No wind87%30.01 "Hg1 mi
6:30 am46 °FFog.No wind87%30.01 "Hg1 mi
6:00 am46 °FFog.No wind87%30.01 "Hg1 mi
5:00 am48 °FFog.No wind82%29.98 "Hg1 mi
4:30 am48 °FFog.No wind82%29.98 "Hg1 mi
4:00 am48 °FFog.No wind82%29.98 "Hg1 mi
3:30 am52 °FHaze.No wind77%30.01 "Hg1 mi
3:00 am52 °FHaze.No wind77%30.01 "Hg1 mi
2:00 am52 °FHaze.No wind77%30.04 "Hg1 mi
1:30 am52 °FHaze.No wind77%30.04 "Hg1 mi
1:00 am52 °FHaze.No wind77%30.04 "Hg1 mi
12:30 am54 °FHaze.No wind77%30.04 "Hg1 mi
12:00 am54 °FHaze.No wind77%30.04 "Hg1 mi
11:30 pm
Thu, Dec 8
55 °FHaze.No wind72%30.07 "Hg1 mi
11:00 pm55 °FHaze.No wind72%30.07 "Hg1 mi
Weather by CustomWeather, © 2016

See weather overviewHow to use our weather pages